Satellite-Ground Cal/Val Site Overpasses Predictions

Prediction of Satellite NPP Overpassing Cal/Val Site: Antarctic Dome C

Ground Cal/Val Site Location: Latitude: -75.10, Longitude: 123.35; Satellite-Ground Site NADIR distance within 100 km.

Table of predicted overpasses for the next 14.0 days since TLE Epoch: 1/5/2019
Interval Starting Time Ending Time Minimum Distance Time Minimum Distance (km)
1 01/05/2019 07:38:05 01/05/2019 07:38:32 01/05/2019 07:38:19 38.84
2 01/06/2019 07:19:19 01/06/2019 07:19:40 01/06/2019 07:19:29 71.11
3 01/08/2019 15:01:33 01/08/2019 15:01:56 01/08/2019 15:01:45 59.82
4 01/09/2019 14:42:43 01/09/2019 14:43:08 01/09/2019 14:42:55 49.53
5 01/10/2019 07:44:25 01/10/2019 07:44:44 01/10/2019 07:44:34 74.04
6 01/11/2019 07:25:30 01/11/2019 07:25:58 01/11/2019 07:25:44 33.76
7 01/13/2019 15:07:58 01/13/2019 15:08:03 01/13/2019 15:08:01 97.61
8 01/14/2019 14:48:56 01/14/2019 14:49:25 01/14/2019 14:49:11 13.83


NCC Satellite Cal/Val Overpasses Prediction Service
